Time,TemperatureF,DewpointF,PressureIn,WindDirection,WindDirectionDegrees,WindSpeedMPH,WindSpeedGustMPH,Humidity,HourlyPrecipIn,Conditions,Clouds,dailyrainin,SoftwareType,DateUTC
2013-07-24 00:06:00,60.3,60.0,29.54,NNW,337,0.0,-999.0,99,-99.99,,,0.00,Acu-Link.com,2013-07-24 04:06:00,
2013-07-24 00:22:00,60.3,60.0,29.54,NW,315,0.0,-999.0,99,-99.99,,,0.00,Acu-Link.com,2013-07-24 04:22:00,
2013-07-24 00:37:00,60.3,60.0,29.53,ESE,112,0.0,-999.0,99,-99.99,,,0.00,Acu-Link.com,2013-07-24 04:37:00,
2013-07-24 00:52:00,60.4,60.1,29.54,WNW,292,0.0,-999.0,99,-99.99,,,0.00,Acu-Link.com,2013-07-24 04:52:00,
2013-07-24 01:07:00,60.3,60.0,29.54,NW,315,0.0,-999.0,99,-99.99,,,0.00,Acu-Link.com,2013-07-24 05:07:00,
2013-07-24 01:23:00,60.4,60.1,29.55,NE,45,1.1,-999.0,99,-99.99,,,0.00,Acu-Link.com,2013-07-24 05:23:00,
2013-07-24 01:38:00,60.4,60.1,29.53,NNE,22,0.0,-999.0,99,-99.99,,,0.00,Acu-Link.com,2013-07-24 05:38:00,
2013-07-24 01:53:00,61.9,61.6,29.53,NNE,22,0.0,-999.0,99,-99.99,,,0.00,Acu-Link.com,2013-07-24 05:53:00,
2013-07-24 02:08:00,61.5,61.2,29.53,NNW,337,0.0,-999.0,99,-99.99,,,0.00,Acu-Link.com,2013-07-24 06:08:00,
2013-07-24 02:23:00,61.2,60.9,29.54,ENE,67,1.1,-999.0,99,-99.99,,,0.00,Acu-Link.com,2013-07-24 06:23:00,
2013-07-24 02:39:00,60.8,60.5,29.54,East,90,0.0,-999.0,99,-99.99,,,0.00,Acu-Link.com,2013-07-24 06:39:00,
2013-07-24 02:54:00,60.3,60.0,29.55,ENE,67,0.0,-999.0,99,-99.99,,,0.00,Acu-Link.com,2013-07-24 06:54:00,
2013-07-24 03:09:00,59.9,59.6,29.54,NNE,22,0.0,-999.0,99,-99.99,,,0.00,Acu-Link.com,2013-07-24 07:09:00,
2013-07-24 03:24:00,60.1,59.8,29.54,NNE,22,0.0,-999.0,99,-99.99,,,0.00,Acu-Link.com,2013-07-24 07:24:00,
2013-07-24 03:39:00,60.4,60.1,29.54,ENE,67,0.0,-999.0,99,-99.99,,,0.00,Acu-Link.com,2013-07-24 07:39:00,
2013-07-24 03:55:00,61.0,60.7,29.54,NW,315,0.0,-999.0,99,-99.99,,,0.00,Acu-Link.com,2013-07-24 07:55:00,
2013-07-24 04:10:00,61.0,60.7,29.54,North,0,0.0,-999.0,99,-99.99,,,0.00,Acu-Link.com,2013-07-24 08:10:00,
2013-07-24 04:25:00,61.0,60.7,29.54,NW,315,0.0,-999.0,99,-99.99,,,0.00,Acu-Link.com,2013-07-24 08:25:00,
2013-07-24 04:40:00,60.6,60.3,29.53,NNE,22,0.0,-999.0,99,-99.99,,,0.00,Acu-Link.com,2013-07-24 08:40:00,
2013-07-24 04:55:00,60.4,60.1,29.55,NNE,22,1.1,-999.0,99,-99.99,,,0.00,Acu-Link.com,2013-07-24 08:55:00,
2013-07-24 05:10:00,60.6,60.3,29.54,NNW,337,0.0,-999.0,99,-99.99,,,0.00,Acu-Link.com,2013-07-24 09:10:00,
2013-07-24 05:25:00,61.0,60.7,29.56,NW,315,0.0,-999.0,99,-99.99,,,0.00,Acu-Link.com,2013-07-24 09:25:00,
2013-07-24 05:41:00,61.5,61.2,29.55,NW,315,0.0,-999.0,99,-99.99,,,0.00,Acu-Link.com,2013-07-24 09:41:00,
2013-07-24 05:56:00,62.2,61.9,29.55,NE,45,0.0,-999.0,99,-99.99,,,0.00,Acu-Link.com,2013-07-24 09:56:00,
2013-07-24 06:11:00,62.6,62.3,29.56,West,270,1.7,-999.0,99,-99.99,,,0.00,Acu-Link.com,2013-07-24 10:11:00,
2013-07-24 06:26:00,63.1,62.8,29.54,ESE,112,0.0,-999.0,99,-99.99,,,0.03,Acu-Link.com,2013-07-24 10:26:00,
2013-07-24 06:41:00,63.3,63.0,29.53,NW,315,2.2,-999.0,99,-99.99,,,0.05,Acu-Link.com,2013-07-24 10:41:00,
2013-07-24 06:57:00,63.3,63.0,29.57,NW,315,4.7,-999.0,99,-99.99,,,0.05,Acu-Link.com,2013-07-24 10:57:00,
2013-07-24 07:12:00,63.7,63.4,29.57,WSW,247,6.3,-999.0,99,-99.99,,,0.05,Acu-Link.com,2013-07-24 11:12:00,
2013-07-24 07:27:00,63.7,63.4,29.58,SW,225,2.7,-999.0,99,-99.99,,,0.05,Acu-Link.com,2013-07-24 11:27:00,
2013-07-24 07:42:00,63.5,63.2,29.58,WNW,292,1.7,-999.0,99,-99.99,,,0.06,Acu-Link.com,2013-07-24 11:42:00,
2013-07-24 07:58:00,64.2,63.9,29.59,West,270,3.7,-999.0,99,-99.99,,,0.12,Acu-Link.com,2013-07-24 11:58:00,
2013-07-24 08:13:00,64.0,63.4,29.58,West,270,5.8,-999.0,98,-99.99,,,0.13,Acu-Link.com,2013-07-24 12:13:00,
2013-07-24 08:28:00,64.4,63.8,29.57,SW,225,4.7,-999.0,98,-99.99,,,0.13,Acu-Link.com,2013-07-24 12:28:00,
2013-07-24 08:43:00,64.4,63.5,29.57,WSW,247,4.7,-999.0,97,-99.99,,,0.13,Acu-Link.com,2013-07-24 12:43:00,
2013-07-24 08:59:00,63.9,63.0,29.58,West,270,6.3,-999.0,97,-99.99,,,0.13,Acu-Link.com,2013-07-24 12:59:00,
2013-07-24 09:14:00,63.7,62.8,29.58,SW,225,3.7,-999.0,97,-99.99,,,0.13,Acu-Link.com,2013-07-24 13:14:00,
2013-07-24 09:29:00,63.5,62.6,29.59,West,270,5.8,-999.0,97,-99.99,,,0.13,Acu-Link.com,2013-07-24 13:29:00,
2013-07-24 09:44:00,62.8,61.9,29.62,SSW,202,9.9,-999.0,97,-99.99,,,0.13,Acu-Link.com,2013-07-24 13:44:00,
2013-07-24 09:59:00,62.2,61.3,29.62,WSW,247,10.4,-999.0,97,-99.99,,,0.13,Acu-Link.com,2013-07-24 13:59:00,
2013-07-24 10:15:00,62.2,61.0,29.63,WSW,247,6.8,-999.0,96,-99.99,,,0.13,Acu-Link.com,2013-07-24 14:15:00,
2013-07-24 10:30:00,61.5,60.1,29.65,SW,225,4.7,-999.0,95,-99.99,,,0.13,Acu-Link.com,2013-07-24 14:30:00,
2013-07-24 10:45:00,60.1,59.2,29.66,ENE,67,5.8,-999.0,97,-99.99,,,0.13,Acu-Link.com,2013-07-24 14:45:00,
2013-07-24 11:02:00,58.6,57.8,29.67,SW,225,6.3,-999.0,97,-99.99,,,0.13,Acu-Link.com,2013-07-24 15:02:00,
2013-07-24 11:17:00,58.6,57.8,29.69,SSW,202,8.3,-999.0,97,-99.99,,,0.13,Acu-Link.com,2013-07-24 15:17:00,
2013-07-24 11:32:00,58.5,57.7,29.69,SW,225,11.4,-999.0,97,-99.99,,,0.13,Acu-Link.com,2013-07-24 15:32:00,
2013-07-24 11:47:00,58.3,57.5,29.71,NW,315,4.7,-999.0,97,-99.99,,,0.13,Acu-Link.com,2013-07-24 15:47:00,
2013-07-24 12:03:00,58.5,57.4,29.72,SW,225,5.3,-999.0,96,-99.99,,,0.13,Acu-Link.com,2013-07-24 16:03:00,
2013-07-24 12:18:00,57.7,56.6,29.72,West,270,5.8,-999.0,96,-99.99,,,0.13,Acu-Link.com,2013-07-24 16:18:00,
2013-07-24 12:33:00,57.4,56.3,29.73,WNW,292,4.2,-999.0,96,-99.99,,,0.13,Acu-Link.com,2013-07-24 16:33:00,
2013-07-24 12:48:00,58.3,57.2,29.73,West,270,3.7,-999.0,96,-99.99,,,0.13,Acu-Link.com,2013-07-24 16:48:00,
2013-07-24 13:03:00,57.6,56.5,29.73,WSW,247,2.7,-999.0,96,-99.99,,,0.13,Acu-Link.com,2013-07-24 17:03:00,
2013-07-24 13:19:00,58.8,56.5,29.73,SSW,202,8.3,-999.0,92,-99.99,,,0.13,Acu-Link.com,2013-07-24 17:19:00,
2013-07-24 13:34:00,59.4,56.5,29.74,SW,225,4.7,-999.0,90,-99.99,,,0.13,Acu-Link.com,2013-07-24 17:34:00,
2013-07-24 13:49:00,59.4,55.5,29.75,West,270,7.3,-999.0,87,-99.99,,,0.13,Acu-Link.com,2013-07-24 17:49:00,
2013-07-24 14:04:00,58.3,54.4,29.76,WNW,292,8.3,-999.0,87,-99.99,,,0.13,Acu-Link.com,2013-07-24 18:04:00,
2013-07-24 14:19:00,57.9,53.7,29.76,SW,225,5.8,-999.0,86,-99.99,,,0.13,Acu-Link.com,2013-07-24 18:19:00,
2013-07-24 14:35:00,58.6,54.1,29.76,WSW,247,6.8,-999.0,85,-99.99,,,0.13,Acu-Link.com,2013-07-24 18:35:00,
2013-07-24 14:50:00,58.1,53.6,29.77,WSW,247,2.7,-999.0,85,-99.99,,,0.13,Acu-Link.com,2013-07-24 18:50:00,
2013-07-24 15:05:00,60.6,53.3,29.76,WSW,247,8.9,-999.0,77,-99.99,,,0.13,Acu-Link.com,2013-07-24 19:05:00,
2013-07-24 15:20:00,60.3,52.7,29.77,SW,225,5.3,-999.0,76,-99.99,,,0.13,Acu-Link.com,2013-07-24 19:20:00,
2013-07-24 15:36:00,59.9,52.0,29.76,NW,315,6.3,-999.0,75,-99.99,,,0.13,Acu-Link.com,2013-07-24 19:36:00,
2013-07-24 15:51:00,58.6,51.1,29.78,West,270,6.8,-999.0,76,-99.99,,,0.13,Acu-Link.com,2013-07-24 19:51:00,
2013-07-24 16:06:00,57.9,51.1,29.79,West,270,7.8,-999.0,78,-99.99,,,0.13,Acu-Link.com,2013-07-24 20:06:00,
2013-07-24 16:21:00,58.1,50.6,29.78,West,270,8.3,-999.0,76,-99.99,,,0.13,Acu-Link.com,2013-07-24 20:21:00,
2013-07-24 16:36:00,56.7,49.9,29.79,West,270,7.3,-999.0,78,-99.99,,,0.13,Acu-Link.com,2013-07-24 20:36:00,
2013-07-24 16:52:00,55.9,49.1,29.80,SW,225,7.3,-999.0,78,-99.99,,,0.13,Acu-Link.com,2013-07-24 20:52:00,
2013-07-24 17:07:00,55.0,48.9,29.82,WSW,247,10.4,-999.0,80,-99.99,,,0.13,Acu-Link.com,2013-07-24 21:07:00,
2013-07-24 17:22:00,55.6,49.5,29.82,NW,315,5.8,-999.0,80,-99.99,,,0.13,Acu-Link.com,2013-07-24 21:22:00,
2013-07-24 17:52:00,54.3,48.3,29.83,West,270,9.9,-999.0,80,-99.99,,,0.13,Acu-Link.com,2013-07-24 21:52:00,
2013-07-24 18:08:00,54.1,48.1,29.85,WSW,247,6.8,-999.0,80,-99.99,,,0.13,Acu-Link.com,2013-07-24 22:08:00,
2013-07-24 18:23:00,53.8,48.1,29.85,West,270,7.3,-999.0,81,-99.99,,,0.13,Acu-Link.com,2013-07-24 22:23:00,
2013-07-24 18:38:00,53.2,47.5,29.86,West,270,5.8,-999.0,81,-99.99,,,0.13,Acu-Link.com,2013-07-24 22:38:00,
2013-07-24 18:53:00,53.2,47.5,29.87,WSW,247,8.9,-999.0,81,-99.99,,,0.13,Acu-Link.com,2013-07-24 22:53:00,
2013-07-24 19:09:00,53.1,47.8,29.88,WSW,247,3.2,-999.0,82,-99.99,,,0.13,Acu-Link.com,2013-07-24 23:09:00,
2013-07-24 19:24:00,52.7,47.7,29.88,West,270,5.8,-999.0,83,-99.99,,,0.13,Acu-Link.com,2013-07-24 23:24:00,
2013-07-24 19:39:00,52.3,47.3,29.89,SSW,202,3.7,-999.0,83,-99.99,,,0.13,Acu-Link.com,2013-07-24 23:39:00,
2013-07-24 19:54:00,52.0,47.0,29.89,West,270,5.3,-999.0,83,-99.99,,,0.13,Acu-Link.com,2013-07-24 23:54:00,
2013-07-24 20:09:00,51.6,46.6,29.91,SW,225,3.7,-999.0,83,-99.99,,,0.13,Acu-Link.com,2013-07-25 00:09:00,
2013-07-24 20:25:00,51.4,46.4,29.91,West,270,4.2,-999.0,83,-99.99,,,0.13,Acu-Link.com,2013-07-25 00:25:00,
2013-07-24 20:40:00,51.4,46.7,29.92,West,270,2.2,-999.0,84,-99.99,,,0.13,Acu-Link.com,2013-07-25 00:40:00,
2013-07-24 20:55:00,51.4,46.7,29.92,SW,225,0.0,-999.0,84,-99.99,,,0.13,Acu-Link.com,2013-07-25 00:55:00,
2013-07-24 21:10:00,51.4,46.7,29.94,SSW,202,2.2,-999.0,84,-99.99,,,0.13,Acu-Link.com,2013-07-25 01:10:00,
2013-07-24 21:25:00,51.3,46.6,29.95,WSW,247,3.7,-999.0,84,-99.99,,,0.13,Acu-Link.com,2013-07-25 01:25:00,
2013-07-24 21:41:00,51.1,46.4,29.96,SSW,202,4.2,-999.0,84,-99.99,,,0.13,Acu-Link.com,2013-07-25 01:41:00,
2013-07-24 21:56:00,51.3,46.6,29.97,NW,315,0.0,-999.0,84,-99.99,,,0.13,Acu-Link.com,2013-07-25 01:56:00,
2013-07-24 22:11:00,51.3,46.6,29.97,NE,45,0.0,-999.0,84,-99.99,,,0.13,Acu-Link.com,2013-07-25 02:11:00,
2013-07-24 22:27:00,51.1,46.7,29.98,WNW,292,1.1,-999.0,85,-99.99,,,0.13,Acu-Link.com,2013-07-25 02:27:00,
2013-07-24 22:42:00,51.1,46.4,29.98,WNW,292,1.7,-999.0,84,-99.99,,,0.13,Acu-Link.com,2013-07-25 02:42:00,
2013-07-24 22:57:00,50.9,46.6,29.97,SW,225,2.7,-999.0,85,-99.99,,,0.13,Acu-Link.com,2013-07-25 02:57:00,
2013-07-24 23:12:00,50.7,46.4,29.98,North,0,1.1,-999.0,85,-99.99,,,0.13,Acu-Link.com,2013-07-25 03:12:00,
2013-07-24 23:27:00,50.7,46.0,29.99,SW,225,2.2,-999.0,84,-99.99,,,0.13,Acu-Link.com,2013-07-25 03:27:00,
2013-07-24 23:43:00,50.7,46.0,30.00,West,270,0.0,-999.0,84,-99.99,,,0.13,Acu-Link.com,2013-07-25 03:43:00,
2013-07-24 23:58:00,50.5,45.8,30.00,North,0,0.0,-999.0,84,-99.99,,,0.13,Acu-Link.com,2013-07-25 03:58:00,